• In Hungary
  • List of Countries
  • For 7 days
  • Water Temperature
  • Satellite Maps
  • Weather Map
  • News
  • Weather Widgets
  • user-avatar
    Login

    Hourly Weather Gold Coast

    Today, 25 November, Saturday

    Time Temperature Precipitation Wind Pressure Humidity
    00:00 +19°C° 0.1 mm 3 mps 758 mmHg 94%
    01:00 +19°C° 0.1 mm 3 mps 758 mmHg 95%
    02:00 +19°C° 0.1 mm 3 mps 758 mmHg 95%
    03:00 +19°C° 0.1 mm 3 mps 757 mmHg 95%
    04:00 +19°C° 0 mm 4 mps 757 mmHg 96%
    05:00 +20°C° 0.1 mm 4 mps 757 mmHg 91%
    06:00 +21°C° 0.1 mm 4 mps 758 mmHg 86%
    07:00 +22°C° 0.1 mm 4 mps 758 mmHg 81%
    08:00 +25°C° 0 mm 5 mps 758 mmHg 72%
    09:00 +27°C° 0 mm 5 mps 758 mmHg 62%
    10:00 +29°C° 0 mm 5 mps 758 mmHg 53%
    11:00 +30°C° 0.1 mm 5 mps 757 mmHg 52%
    12:00 +30°C° 0.1 mm 5 mps 757 mmHg 52%
    13:00 +30°C° 0.1 mm 5 mps 757 mmHg 51%
    14:00 +30°C° 0.1 mm 5 mps 756 mmHg 54%
    15:00 +29°C° 0.1 mm 5 mps 756 mmHg 56%
    16:00 +29°C° 0.1 mm 6 mps 756 mmHg 59%
    17:00 +27°C° 0 mm 5 mps 756 mmHg 67%
    18:00 +25°C° 0 mm 5 mps 757 mmHg 76%
    19:00 +22°C° 0 mm 4 mps 757 mmHg 85%
    20:00 +22°C° 0.1 mm 4 mps 757 mmHg 87%
    21:00 +21°C° 0.1 mm 4 mps 758 mmHg 90%
    22:00 +21°C° 0.1 mm 3 mps 758 mmHg 93%
    23:00 +21°C° 0.2 mm 3 mps 758 mmHg 94%

    Tomorrow, 26 November, Sunday

    Time Temperature Precipitation Wind Pressure Humidity
    00:00 +20°C° 0.2 mm 3 mps 757 mmHg 94%
    01:00 +20°C° 0.2 mm 3 mps 757 mmHg 95%
    02:00 +20°C° 0.1 mm 3 mps 757 mmHg 95%
    03:00 +20°C° 0.1 mm 3 mps 757 mmHg 95%
    04:00 +20°C° 0.1 mm 3 mps 756 mmHg 96%
    05:00 +21°C° 0 mm 3 mps 757 mmHg 91%
    06:00 +22°C° 0 mm 3 mps 757 mmHg 86%
    07:00 +24°C° 0 mm 3 mps 757 mmHg 81%
    08:00 +26°C° 0.1 mm 4 mps 757 mmHg 74%
    09:00 +27°C° 0.1 mm 4 mps 757 mmHg 68%
    10:00 +29°C° 0.1 mm 4 mps 757 mmHg 61%
    11:00 +29°C° 0.3 mm 4 mps 757 mmHg 63%
    12:00 +29°C° 0.3 mm 4 mps 757 mmHg 65%
    13:00 +29°C° 0.3 mm 4 mps 756 mmHg 67%
    14:00 +28°C° 0.1 mm 4 mps 756 mmHg 66%
    15:00 +28°C° 0.1 mm 5 mps 756 mmHg 66%
    16:00 +28°C° 0.1 mm 5 mps 756 mmHg 65%
    17:00 +27°C° 0 mm 4 mps 756 mmHg 73%
    18:00 +25°C° 0 mm 4 mps 757 mmHg 80%
    19:00 +22°C° 0 mm 4 mps 757 mmHg 88%
    20:00 +22°C° 0 mm 4 mps 757 mmHg 90%
    21:00 +22°C° 0 mm 3 mps 758 mmHg 92%
    22:00 +21°C° 0 mm 3 mps 758 mmHg 94%
    23:00 +21°C° 0 mm 3 mps 757 mmHg 94%

    Day after tomorrow, 27 November, Monday

    Time Temperature Precipitation Wind Pressure Humidity
    00:00 +21°C° 0 mm 3 mps 757 mmHg 94%
    01:00 +21°C° 0 mm 2 mps 756 mmHg 95%
    02:00 +20°C° 0 mm 2 mps 756 mmHg 95%
    03:00 +20°C° 0 mm 3 mps 756 mmHg 95%
    04:00 +20°C° 0 mm 3 mps 756 mmHg 95%
    05:00 +21°C° 0 mm 3 mps 756 mmHg 90%
    06:00 +22°C° 0 mm 3 mps 757 mmHg 85%
    07:00 +24°C° 0 mm 3 mps 757 mmHg 80%
    08:00 +26°C° 0 mm 3 mps 757 mmHg 71%
    09:00 +28°C° 0 mm 4 mps 757 mmHg 62%
    10:00 +30°C° 0 mm 4 mps 758 mmHg 53%
    11:00 +30°C° 0 mm 4 mps 757 mmHg 51%
    12:00 +32°C° 0 mm 4 mps 757 mmHg 49%
    13:00 +32°C° 0 mm 4 mps 756 mmHg 48%
    14:00 +32°C° 0 mm 4 mps 756 mmHg 51%
    15:00 +30°C° 0 mm 4 mps 756 mmHg 54%
    16:00 +29°C° 0 mm 4 mps 756 mmHg 57%
    17:00 +28°C° 0 mm 4 mps 756 mmHg 66%
    18:00 +26°C° 0 mm 4 mps 757 mmHg 76%
    19:00 +23°C° 0 mm 4 mps 757 mmHg 86%
    20:00 +22°C° 0 mm 3 mps 758 mmHg 89%
    21:00 +22°C° 0 mm 3 mps 758 mmHg 91%
    22:00 +21°C° 0 mm 3 mps 759 mmHg 94%
    23:00 +21°C° 0.1 mm 3 mps 758 mmHg 94%

    28 November, Tuesday

    Time Temperature Precipitation Wind Pressure Humidity
    00:00 +21°C° 0.1 mm 3 mps 758 mmHg 95%
    01:00 +21°C° 0.1 mm 3 mps 757 mmHg 95%
    02:00 +21°C° 0.2 mm 3 mps 757 mmHg 96%
    03:00 +21°C° 0.2 mm 3 mps 757 mmHg 96%
    04:00 +21°C° 0.2 mm 3 mps 757 mmHg 96%
    05:00 +22°C° 0.2 mm 3 mps 758 mmHg 92%
    06:00 +24°C° 0.2 mm 3 mps 758 mmHg 88%
    07:00 +25°C° 0.2 mm 3 mps 759 mmHg 84%
    08:00 +26°C° 0.2 mm 3 mps 759 mmHg 77%
    09:00 +28°C° 0.2 mm 3 mps 759 mmHg 71%
    10:00 +29°C° 0.2 mm 4 mps 759 mmHg 64%
    11:00 +29°C° 0.4 mm 4 mps 758 mmHg 65%
    12:00 +29°C° 0.4 mm 4 mps 758 mmHg 66%
    13:00 +29°C° 0.4 mm 4 mps 758 mmHg 67%
    14:00 +29°C° 0.2 mm 4 mps 758 mmHg 68%
    15:00 +28°C° 0.2 mm 4 mps 758 mmHg 68%
    16:00 +28°C° 0.2 mm 4 mps 758 mmHg 69%
    17:00 +27°C° 0 mm 4 mps 758 mmHg 76%
    18:00 +25°C° 0 mm 4 mps 759 mmHg 83%
    19:00 +23°C° 0 mm 4 mps 759 mmHg 90%
    20:00 +23°C° 0.1 mm 4 mps 760 mmHg 91%
    21:00 +22°C° 0.1 mm 3 mps 760 mmHg 93%
    22:00 +22°C° 0.1 mm 3 mps 760 mmHg 94%
    23:00 +22°C° 0.2 mm 3 mps 760 mmHg 94%

    29 November, Wednesday

    Time Temperature Precipitation Wind Pressure Humidity
    00:00 +22°C° 0.2 mm 3 mps 759 mmHg 95%
    01:00 +21°C° 0.2 mm 3 mps 759 mmHg 95%
    02:00 +21°C° 0.2 mm 3 mps 759 mmHg 95%
    03:00 +21°C° 0.2 mm 3 mps 759 mmHg 95%
    04:00 +21°C° 0.2 mm 2 mps 759 mmHg 96%
    05:00 +22°C° 0.2 mm 3 mps 759 mmHg 92%
    06:00 +24°C° 0.2 mm 3 mps 760 mmHg 88%
    07:00 +25°C° 0.2 mm 3 mps 760 mmHg 84%
    08:00 +26°C° 0.3 mm 3 mps 760 mmHg 79%
    09:00 +27°C° 0.3 mm 3 mps 760 mmHg 73%
    10:00 +29°C° 0.3 mm 4 mps 760 mmHg 67%
    11:00 +29°C° 0.5 mm 4 mps 759 mmHg 70%
    12:00 +28°C° 0.5 mm 4 mps 759 mmHg 72%
    13:00 +28°C° 0.5 mm 4 mps 758 mmHg 74%
    14:00 +28°C° 0.5 mm 4 mps 758 mmHg 76%
    15:00 +27°C° 0.5 mm 4 mps 758 mmHg 77%
    16:00 +27°C° 0.5 mm 4 mps 758 mmHg 79%
    17:00 +26°C° 0.2 mm 4 mps 759 mmHg 83%
    18:00 +25°C° 0.2 mm 4 mps 759 mmHg 88%
    19:00 +24°C° 0.2 mm 3 mps 760 mmHg 92%
    20:00 +22°C° 0 mm 3 mps 760 mmHg 93%
    21:00 +22°C° 0 mm 3 mps 760 mmHg 94%
    22:00 +22°C° 0 mm 3 mps 760 mmHg 94%
    23:00 +22°C° 0.1 mm 3 mps 759 mmHg 95%

    30 November, Thursday

    Time Temperature Precipitation Wind Pressure Humidity
    00:00 +22°C° 0.1 mm 3 mps 759 mmHg 95%
    01:00 +21°C° 0.1 mm 3 mps 758 mmHg 95%
    02:00 +21°C° 0.1 mm 3 mps 758 mmHg 95%
    03:00 +21°C° 0.1 mm 3 mps 758 mmHg 95%
    04:00 +21°C° 0.1 mm 3 mps 758 mmHg 95%
    05:00 +22°C° 0.1 mm 3 mps 759 mmHg 92%
    06:00 +24°C° 0.1 mm 3 mps 759 mmHg 88%
    07:00 +25°C° 0.1 mm 3 mps 760 mmHg 85%
    08:00 +27°C° 0.1 mm 3 mps 760 mmHg 76%
    09:00 +28°C° 0.1 mm 3 mps 759 mmHg 68%
    10:00 +29°C° 0.1 mm 3 mps 759 mmHg 59%
    11:00 +30°C° 0 mm 4 mps 759 mmHg 57%
    12:00 +30°C° 0 mm 4 mps 758 mmHg 55%
    13:00 +32°C° 0 mm 4 mps 758 mmHg 52%
    14:00 +30°C° 0.1 mm 4 mps 757 mmHg 55%
    15:00 +29°C° 0.1 mm 4 mps 757 mmHg 58%
    16:00 +29°C° 0.1 mm 5 mps 757 mmHg 61%
    17:00 +27°C° 0 mm 4 mps 758 mmHg 69%
    18:00 +26°C° 0 mm 4 mps 758 mmHg 76%
    19:00 +24°C° 0 mm 3 mps 759 mmHg 83%
    20:00 +24°C° 0 mm 3 mps 759 mmHg 86%
    21:00 +22°C° 0 mm 3 mps 759 mmHg 88%
    22:00 +22°C° 0 mm 3 mps 759 mmHg 91%
    23:00 +21°C° 0.1 mm 3 mps 758 mmHg 92%
    Show more